Location: Ja?kowice
(49.9607°N, 19.6777°E)
Time: 07:08:36
(UTC+00:00)

Daily predictions for brighter satellites

Satellite Brightness Start Highest point End
(mag) Time Altitude Azimuth Time Altitude Azimuth Time Altitude Azimuth
CZ-2C R/B 2.6 18:37:17 10° NNE 18:42:29 73° ESE 18:47:40 10° S
ARGOS 4.4 18:38:05 10° S 18:43:13 44° W 18:48:22 10° NNW
Cosmos 407 Rocket 4.4 18:40:29 10° SSE 18:44:57 28° E 18:49:24 10° NE
Meteor 1-4 Rocket 4.1 18:42:30 10° NNE 18:45:07 19° ENE 18:47:42 10° ESE
SL-8 R/B 4.4 18:41:09 10° W 18:45:44 43° SSW 18:50:18 10° SE
Terra 3.9 18:44:19 10° E 18:46:33 13° NE 18:48:47 10° NNE
Meteor 1-27 Rocket 4.3 18:41:53 10° N 18:47:35 48° ENE 18:53:18 10° SE
Meteor 1-10 Rocket 4.3 18:42:31 10° N 18:48:11 72° ENE 18:53:55 10° SSE
USA 186 3.7 18:46:58 10° SSW 18:48:43 19° W 18:50:29 10° NW
FREGAT/IRIS 4.5 18:50:29 10° SSW 18:52:47 26° W 18:55:06 10° NW
Cosmos 2218 Rocket 4.3 18:48:41 10° SSW 18:54:51 72° W 19:01:01 10° N
Cosmos 1782 4.1 18:52:44 10° NNW 18:56:34 43° W 19:00:23 10° SSW
H-2A R/B 4.2 18:53:44 10° SSW 18:58:00 26° W 19:02:12 10° NW
Cosmos 1980 Rocket 2.9 18:54:32 10° NNW 18:59:57 42° NE 19:05:18 10° ESE
SPOT 5 4.3 18:57:14 10° ESE 19:00:15 19° ENE 19:03:19 10° NNE
Cosmos 1805 Rocket 3.7 18:56:42 10° S 19:01:03 60° E 19:05:27 10° NNE
ERBS 2.7 18:59:46 10° WSW 19:03:05 67° NNW 19:06:24 10° NE
Cosmos 972 4.5 18:58:13 10° NNW 19:03:33 77° ENE 19:08:28 10° SSE
SPOT 1/Viking Rocket 4.3 18:59:30 10° SE 19:04:18 38° ENE 19:09:07 10° N
DMSP B5D2-2 4.3 18:59:12 10° NNE 19:04:26 80° WNW 19:09:40 10° SSW
ATLAS 5 CENTAUR R/B 2.9 19:03:07 10° NW 19:08:40 57° SW 19:15:05 10° SSE
Cosmos 1140 Rocket 4.1 19:06:00 10° SSE 19:10:43 35° ESE 19:15:28 10° NE
SL-4 R/B 2.9 19:07:53 10° SSW 19:11:04 23° SE 19:14:05 10° E
Genesis I 4.0 19:08:49 10° NNW 19:12:32 41° NE 19:15:51 12° ESE
Cosmos 1697 Rocket 2.7 19:10:15 10° NNW 19:15:55 86° ENE 19:21:19 11° SSE
Cosmos 2228 Rocket 4.2 19:12:38 10° NNW 19:16:52 45° W 19:21:04 10° SSW
Cosmos 1833 Rocket 2.8 19:12:26 10° S 19:17:52 54° ESE 19:23:21 10° NE
CENTAUR R/B 4.0 19:17:41 12° ESE 19:19:20 13° ESE 19:22:03 10° ENE
Cosmos 389 Rocket 3.1 19:16:40 10° NNW 19:20:02 54° W 19:23:24 10° S
SPOT 3 Rocket 4.2 19:16:46 10° S 19:21:53 55° W 19:27:00 10° NNW
Cosmos 1812 3.0 19:18:04 10° NNW 19:21:54 67° W 19:25:42 10° S
Cosmos 1633 Rocket 3.5 19:18:32 10° SSE 19:22:42 42° E 19:26:53 10° NNE
Cosmos 2251 Rocket 4.4 19:19:46 10° SW 19:24:54 54° WNW 19:30:08 10° NNE
Cosmos 1867 4.4 19:20:36 10° S 19:25:11 29° ESE 19:29:48 10° ENE
Cosmos 1656 4.5 19:22:06 10° NW 19:27:21 47° WSW 19:32:37 10° S
Cosmos 1707 Rocket 3.6 19:27:01 10° N 19:31:23 85° W 19:35:43 10° S
Resurs 01 Rocket 2.3 19:28:41 10° S 19:33:00 54° W 19:37:21 10° NNW
Landsat 7 3.8 19:30:06 13° SSE 19:34:25 76° ENE 19:39:12 10° NNW
FALCON 9 DEB 4.1 19:36:16 10° SSW 19:39:13 26° SE 19:41:53 12° E
Cosmos 1441 Rocket 3.7 19:35:32 10° SSW 19:39:18 61° WNW 19:43:02 10° N
Cosmos 1934 Rocket 4.1 19:33:39 10° S 19:39:56 67° E 19:46:16 10° NNE
Cosmos 2360 4.3 19:37:08 10° NNW 19:42:54 80° WSW 19:47:32 16° SSE
deb Kosmos-1763 4.5 19:40:16 15° S 19:42:56 39° ESE 19:46:23 10° NE
Cosmos 614 Rocket 4.1 19:38:06 10° SSW 19:43:16 79° WNW 19:48:32 10° NNE
NOSS 3-2 (A) 4.0 19:39:19 10° S 19:44:17 32° ESE 19:49:50 10° NE
IGS 5A 3.4 19:41:07 14° SSE 19:44:35 85° WSW 19:48:46 10° NNW
Cosmos 1470 Rocket 4.1 19:42:24 17° SSE 19:45:21 41° E 19:49:29 10° NNE
USA 267 3.2 19:39:30 10° ENE 19:46:05 75° SE 19:52:37 10° SW
GP-B 3.1 19:45:11 10° N 19:49:39 73° E 19:53:13 16° S
NOSS 3-2 (C) 4.5 19:48:31 19° SE 19:50:26 22° ESE 19:55:07 10° ENE
SWAS 4.4 19:46:25 10° SSW 19:50:42 75° ESE 19:55:03 10° NNE
Cosmos 1821 Rocket 4.4 19:47:10 10° SSW 19:53:15 65° WNW 19:59:28 10° N
Meteor 2-20 Rocket 4.5 19:49:04 10° N 19:55:18 87° E 20:00:27 15° S
Cosmos 921 Rocket 3.2 19:51:37 10° NNW 19:55:48 56° ENE 19:58:03 25° SE
COSMOS 2406 3.7 19:50:12 10° SW 19:55:54 63° WNW 20:01:38 10° NNE
Cosmos 1862 Rocket 3.6 19:53:26 10° N 19:57:57 89° E 20:01:01 20° S
SL-16 R/B 3.1 19:53:23 10° NNW 19:58:42 39° NE 20:02:26 18° ESE
ERS-1 Rocket 3.0 19:56:08 21° SSE 19:59:33 73° ENE 20:04:35 10° N
Lacrosse 5 2.3 19:57:28 10° NW 20:02:29 58° NNE 20:06:21 17° E
Cosmos 468 Rocket 4.5 19:57:21 10° NNW 20:02:33 50° ENE 20:05:37 23° SE
Cosmos 2369 4.4 19:58:04 10° NW 20:03:35 50° WSW 20:08:05 15° S
Sich 1 4.3 20:01:18 10° SSW 20:05:32 43° WNW 20:09:48 10° N
SAR-Lupe-2 3.8 20:02:52 10° NNE 20:06:21 47° E 20:07:36 32° SSE
BREEZE-M DEB (TANK) 1.3 20:07:35 10° W 20:09:54 73° S 20:09:55 72° S
Cosmos 2082 Rocket 2.1 20:05:13 10° SSW 20:10:54 80° ESE 20:16:37 10° NNE
NOSS 2 (A) 4.0 20:09:23 10° NW 20:12:04 73° NE 20:12:18 65° E
Cosmos 2123 Rocket 4.4 20:06:22 10° NNW 20:12:29 64° W 20:18:06 13° S
Cosmos 1954 Rocket 4.0 20:07:17 10° SSW 20:12:34 70° ESE 20:17:53 10° NNE
Cosmos 2278 4.0 20:07:18 10° NW 20:12:57 61° WSW 20:16:44 21° S
Spot 2 Rocket 4.2 20:11:25 14° S 20:15:42 49° W 20:20:41 10° NNW
Meteor 1-4 Rocket 4.0 20:17:06 10° NNW 20:20:15 32° W 20:22:27 16° SSW
Cosmos 2322 Rocket 2.9 20:15:44 10° NNW 20:21:12 45° NE 20:24:25 23° ESE
CARTOSAT-1 3.7 20:20:05 26° S 20:22:28 71° WSW 20:26:48 10° NNW
USA 234 3.5 20:18:46 24° SSE 20:22:46 57° SW 20:29:12 10° WNW
Cosmos 1184 Rocket 3.2 20:21:02 21° SSW 20:23:01 62° WNW 20:26:19 10° N
Terra 1.8 20:21:08 30° SSE 20:23:31 76° ENE 20:28:18 10° NNW
Cosmos 1190 Rocket 4.5 20:18:27 10° SW 20:23:40 63° WNW 20:28:58 10° NNE
Cosmos 1933 Rocket 3.5 20:24:16 28° S 20:26:31 75° E 20:30:58 10° NNE
Cosmos 1605 Rocket 3.9 20:21:08 13° S 20:26:36 88° W 20:32:44 10° N
Cosmos 407 Rocket 4.4 20:21:31 10° SW 20:26:41 50° WNW 20:31:51 10° NNE
Meteor 1-20 Rocket 4.3 20:23:25 14° S 20:28:28 88° W 20:34:23 10° NNE
Cosmos 1238 Rocket 2.1 20:28:02 45° SSW 20:28:50 77° W 20:31:48 10° N
Okean 1 3.3 20:25:52 10° N 20:29:55 88° W 20:31:27 37° S
Cosmos 1602 3.6 20:31:37 37° S 20:33:06 81° E 20:37:03 10° NNE
ATLAS 3B R/B 4.0 20:34:00 18° ESE 20:34:00 18° ESE 20:38:00 10° ENE
Cosmos 1437 Rocket 2.6 20:30:41 10° N 20:34:31 72° ENE 20:35:27 48° SE
Cosmos 2360 Rocket 3.3 20:30:08 10° NNW 20:35:20 35° NE 20:38:35 20° E
Cosmos 1869 Rocket 4.1 20:35:53 36° ESE 20:36:45 40° E 20:40:55 10° NNE
SPOT 5 3.0 20:35:54 29° S 20:37:58 58° WSW 20:42:17 10° NNW
Cosmos 2173 Rocket 4.3 20:36:35 30° SE 20:39:15 48° E 20:45:06 10° NNE
Meteor 1-19 Rocket 4.1 20:34:04 10° NNW 20:39:31 86° W 20:42:13 31° S
USA 238 DEB 3.6 20:33:19 10° SSW 20:39:53 68° SE 20:46:46 10° NE
USA 238 3.6 20:33:26 10° SSW 20:39:59 68° SE 20:46:52 10° NE
Iridium 4 Rocket 3.6 20:41:58 38° ESE 20:42:51 43° E 20:46:52 10° NNE
Geosat 4.3 20:40:38 31° ESE 20:42:55 57° NE 20:47:51 10° NNW
Cosmos 1980 Rocket 3.1 20:38:41 10° NW 20:43:57 40° WSW 20:47:05 22° SSW
JB-3 4.4 20:40:11 10° NNE 20:44:08 57° E 20:44:51 48° SE
Cosmos 2242 Rocket 3.9 20:41:12 10° NNW 20:45:36 61° W 20:47:29 32° SSW
Cosmos 1703 Rocket 3.5 20:41:14 10° NNW 20:45:37 81° W 20:47:06 41° S
Cosmos 1763 Rocket 3.5 20:43:38 10° NNW 20:49:00 85° WSW 20:51:08 38° SSE
Meteor 1-14 Rocket 4.2 20:46:53 27° S 20:50:13 82° E 20:56:12 10° NNE
SL-4 R/B 1.5 20:46:30 10° WSW 20:50:20 80° SSE 20:51:35 39° E
Cosmos 1500 3.4 20:50:18 47° E 20:50:22 47° E 20:53:58 10° NNE
Cosmos 405 Rocket 3.0 20:49:22 34° SW 20:50:47 62° WNW 20:54:29 10° N
BREEZE-M DEB (TANK) 3.1 20:47:37 10° W 20:50:59 86° S 21:02:18 10° E
ALOS 2 4.3 20:50:20 19° E 20:51:41 21° ENE 20:55:00 10° NNE
MOS 1-B Rocket 4.2 20:49:13 10° NNE 20:54:41 43° E 20:56:13 36° SE
Cosmos 2333 Rocket 3.9 20:50:32 10° NNW 20:55:18 25° NE 20:59:21 13° E
Cosmos 2016 Rocket 4.5 20:55:14 33° SE 20:57:29 46° E 21:03:31 10° NNE
Cosmos 2061 Rocket 4.4 20:56:26 34° SE 20:58:32 46° E 21:04:24 10° NNE
Cosmos 1536 4.3 20:58:57 24° E 20:58:57 24° E 21:01:51 10° NE
Meteor 1-13 Rocket 4.4 20:53:33 10° N 20:59:02 57° ENE 21:00:56 38° SE
Cosmos 1459 Rocket 4.0 20:58:06 34° SSE 21:00:55 68° E 21:07:14 10° NNE
Cosmos 1833 Rocket 4.4 20:57:01 10° WSW 21:02:04 33° NW 21:07:10 10° NNE
Cosmos 1666 3.9 21:02:40 28° ENE 21:02:40 28° ENE 21:05:27 10° NNE
Okean 1-7 3.5 21:03:00 10° NNW 21:07:15 55° W 21:08:30 39° SSW
Cosmos 2221 Rocket 3.8 21:03:50 10° N 21:08:14 56° ENE 21:09:01 48° ESE
CENTAUR R/B 2.5 21:04:46 26° SSW 21:08:20 64° SE 21:15:22 10° NE
Cosmos 1867 4.0 21:03:03 10° SW 21:08:27 62° NW 21:13:54 10° NE
Okean 3 3.4 21:09:04 10° N 21:13:23 75° E 21:13:59 62° SE
Cosmos 1733 Rocket 4.0 21:13:54 32° E 21:13:54 32° E 21:17:51 10° NNE
Thor Agena Rocket 3.9 21:10:54 10° NNE 21:15:45 43° E 21:16:25 41° ESE
FALCON 9 DEB 3.5 21:12:30 10° WSW 21:15:21 56° W 21:15:21 56° W
Cosmos 1802 Rocket 4.0 21:13:52 38° S 21:16:29 72° E 21:22:50 10° NNE
Meteor 2-4 Rocket 3.8 21:11:08 10° NNW 21:16:50 70° W 21:18:53 39° S
Cosmos 1850 Rocket 4.0 21:14:18 32° SSW 21:16:52 85° WNW 21:22:12 10° NNE
SL-27 R/B 2.8 21:19:37 53° NE 21:19:37 53° NE 21:22:15 10° NNE
Cosmos 44 3.2 21:17:02 10° NW 21:21:56 90° NE 21:23:09 53° SE
ATLAS 5 CENTAUR R/B 2.0 21:19:21 10° NW 21:22:07 89° SSW 21:23:25 47° SE
Cosmos 2346 Rocket 4.3 21:18:44 10° N 21:24:50 82° E 21:26:55 44° SSE
Spot 4 3.8 21:27:26 57° SSE 21:28:25 81° ENE 21:33:16 10° NNW
USA 267 3.9 21:22:38 10° ENE 21:29:00 58° NNW 21:35:24 10° W
BREEZE-M DEB (TANK) 4.3 21:18:48 10° W 21:33:09 66° S 21:35:19 37° ESE
NOSS 3-2 (A) 3.8 21:28:50 10° WSW 21:34:38 65° NW 21:41:24 10° NE
Cosmos 1378 4.2 21:34:37 10° N 21:37:53 35° ENE 21:37:53 35° ENE
Cosmos 1816 Rocket 4.4 21:33:35 10° N 21:39:56 87° E 21:41:57 46° SSE
NOSS 3-2 (C) 3.4 21:35:51 18° SW 21:40:24 83° NW 21:47:10 10° NE
Cosmos 841 Rocket 3.7 21:35:47 10° NNW 21:40:56 60° WSW 21:42:00 49° SSW
Cosmos 540 Rocket 3.7 21:37:16 10° NNW 21:42:23 60° WSW 21:43:22 50° SSW
SL-16 R/B 2.8 21:37:32 10° NW 21:42:54 45° WSW 21:44:17 38° SW
Lacrosse 5 2.2 21:40:35 10° WNW 21:45:26 46° SW 21:45:31 45° SW
Cosmos 2322 4.1 21:40:04 10° NNW 21:45:41 57° NE 21:47:36 38° ESE
Cosmos 1833 4.5 21:46:47 45° SE 21:47:14 46° ESE 21:52:37 10° NE
Cosmos 1378 Rocket 3.8 21:47:04 10° N 21:51:29 57° ENE 21:51:46 55° E
Tsikada Rocket 4.0 21:46:32 10° N 21:52:57 86° W 21:54:55 48° S
Cosmos 2208 Rocket 4.3 21:49:09 10° NNW 21:54:18 54° WSW 21:55:11 48° SW
Cosmos 2219 Rocket 2.9 21:48:53 10° NNW 21:54:24 48° NE 21:56:38 32° ESE
Cosmos 1814 Rocket 4.2 21:49:36 10° NNW 21:54:41 56° WSW 21:55:32 50° SW
Cosmos 2082 Rocket 4.3 21:51:01 10° W 21:55:40 25° NW 22:00:19 10° NNE
COSMOS 2487 4.1 21:58:46 26° NE 21:58:46 26° NE 22:00:35 10° NE
Cosmos 2084 Rocket 3.3 21:59:01 87° NW 21:59:01 87° NW 22:03:22 10° NE
Cosmos 2237 4.3 21:53:47 10° NW 21:59:27 65° WSW 22:00:34 53° SSW
Cosmos 2333 4.3 21:54:19 10° NNW 22:00:08 71° ENE 22:01:49 47° SE
Terra 4.0 22:00:02 13° WSW 22:01:50 16° W 22:04:41 10° NW
Cosmos 1975 Rocket 4.4 22:00:42 10° N 22:04:40 29° ENE 22:05:17 28° E
Cosmos 2322 Rocket 3.0 21:59:59 10° NW 22:05:11 37° WSW 22:06:13 34° SW
EO 1 Del DPAF 3.4 22:01:30 10° N 22:04:57 69° NNW 22:04:57 69° NNW
Meteor 1-11 Rocket 4.0 22:09:09 42° SW 22:10:57 65° WNW 22:16:41 10° N
Cosmos 1486 Rocket 4.2 22:11:53 51° ESE 22:12:05 51° ESE 22:17:08 10° NNE
Cosmos 1242 Rocket 3.3 22:09:14 10° NNW 22:12:07 48° NW 22:12:07 48° NW
Helios 1A 3.5 22:13:11 49° E 22:13:22 49° ENE 22:17:28 10° N
ERBS 4.3 22:13:54 10° NW 22:16:48 27° NNE 22:18:11 20° NE
Cosmos 1544 4.4 22:20:20 33° ENE 22:20:20 33° ENE 22:22:52 10° NNE
Cosmos 2360 Rocket 2.5 22:14:04 10° NW 22:19:34 51° WSW 22:20:19 48° SW
COSMOS 2428 2.9 22:15:08 10° NNW 22:20:51 65° ENE 22:22:37 44° ESE
ATLAS 3B R/B 2.5 22:21:12 45° SSW 22:23:24 79° SE 22:30:05 10° NE
Cosmos 489 Rocket 4.4 22:18:48 10° NNW 22:25:10 84° ENE 22:26:57 50° SSE
Okean 2 3.8 22:21:09 10° N 22:25:03 55° ENE 22:25:03 55° ENE
ALOS 2 3.0 22:27:44 52° W 22:27:44 52° W 22:32:00 10° NNW
SL-4 R/B 4.1 22:26:22 10° W 22:27:13 16° W 22:27:13 16° W
Nimbus 7 Rocket 4.4 22:24:42 10° NNE 22:30:36 79° WNW 22:32:15 49° SSW
Cosmos 1674 Rocket 4.2 22:29:10 10° NNW 22:33:13 44° W 22:33:13 44° W
Cosmos 2297 Rocket 4.2 22:34:19 14° ESE 22:34:49 14° E 22:37:44 10° ENE
Cosmos 1536 4.0 22:34:39 32° W 22:34:54 33° WNW 22:38:32 10° N
Cosmos 1666 4.4 22:37:32 24° WNW 22:37:46 24° WNW 22:40:52 10° NNW
Cosmos 1743 3.1 22:38:17 64° NNW 22:38:17 64° NNW 22:41:44 10° N
Cosmos 2333 Rocket 2.1 22:34:27 10° NNW 22:40:16 81° WSW 22:41:19 61° S
Cosmos 1271 Rocket 3.4 22:37:47 10° NNW 22:40:47 46° NW 22:40:47 46° NW
NOSS 0 Rocket 4.2 22:38:18 10° NNW 22:44:32 64° NE 22:47:14 34° ESE
Cosmos 2237 Rocket 3.1 22:39:09 10° NNW 22:44:34 43° NE 22:47:32 24° ESE
Lacrosse 4 Rocket 1.5 22:45:23 71° NE 22:45:23 71° NE 22:49:12 10° NE
Cosmos 1025 Rocket 4.3 22:43:53 10° N 22:47:40 30° ENE 22:48:18 28° E
Cosmos 1733 Rocket 4.4 22:50:59 28° W 22:51:43 30° WNW 22:55:37 10° N
Meteor 2-11 Rocket 4.5 22:51:22 50° SW 22:52:58 72° WNW 22:59:06 10° N
Cosmos 44 Rocket 3.2 22:51:53 10° NW 22:56:53 88° NE 22:57:31 69° SE
CENTAUR R/B 3.7 22:53:20 10° W 22:59:26 44° NNW 23:06:36 10° NE
Cosmos 968 Rocket 3.4 22:59:01 65° SW 22:59:44 79° WNW 23:04:54 10° NNE
Cosmos 1975 3.0 23:02:22 71° N 23:02:22 71° N 23:06:03 10° N
Resurs 1-4 Rocket 4.0 23:03:15 10° NE 23:06:43 17° E 23:08:21 15° ESE
Cosmos 1354 Rocket 3.9 23:07:09 65° SSE 23:07:49 75° ESE 23:13:10 10° NNE
Cosmos 1782 Rocket 3.5 23:10:37 77° WNW 23:10:37 77° WNW 23:14:57 10° N
USA 267 4.2 23:05:15 10° ENE 23:11:29 49° N 23:17:44 10° WNW
Cosmos 1707 3.0 23:12:34 10° N 23:16:13 63° NE 23:16:13 63° NE
Cosmos 1464 Rocket 3.9 23:15:36 52° SSW 23:17:17 83° W 23:23:31 10° N
Cosmos 1842 4.2 23:14:32 10° NNW 23:17:41 40° WNW 23:17:41 40° WNW
Cosmos 1908 Rocket 4.4 23:18:33 37° W 23:18:52 38° WNW 23:22:57 10° N
Cosmos 2344 4.4 23:12:22 10° NW 23:21:33 83° NE 23:34:25 10° SE
Helios 1B rocket 2.6 23:17:55 10° NNE 23:21:48 62° E 23:21:48 62° E
CZ-4 R/B 3.8 23:17:19 10° NNE 23:22:19 84° ESE 23:23:00 67° S
Cosmos 2227 Rocket 3.4 23:22:42 27° ESE 23:23:43 29° ESE 23:28:31 10° NE
Meteor 1-21 4.4 23:18:35 10° NNW 23:24:19 60° W 23:25:21 52° SW
Cosmos 1674 4.2 23:24:56 10° N 23:28:13 28° ENE 23:28:43 27° E
Meteor 1-12 Rocket 4.5 23:28:42 48° SSE 23:30:18 67° E 23:36:17 10° NNE
Nadezhda 4 Rocket 4.0 23:30:03 10° NNW 23:36:20 72° W 23:38:03 49° SSW
Cosmos 1777 Rocket 4.3 23:35:45 48° SE 23:36:37 53° ESE 23:41:47 10° NNE
Cosmos 2219 Rocket 3.0 23:33:08 10° NW 23:38:13 34° WSW 23:38:19 34° WSW
MOZ.5/SAFIR/RUBIN 5/SL-8 4.2 23:39:37 41° SE 23:41:00 59° ENE 23:45:41 10° N
Meteor 1-29 3.6 23:38:20 10° NNE 23:41:13 52° NE 23:41:13 52° NE
Cosmos 1975 Rocket 4.1 23:38:30 10° NNW 23:42:25 34° W 23:42:25 34° W
Okean 2 Rocket 2.9 23:45:22 76° SW 23:45:42 84° W 23:50:13 10° N
Cosmos 2034 Rocket 4.0 23:43:53 47° SSW 23:45:47 73° W 23:52:08 10° N
Cosmos 1437 4.3 23:42:51 10° NNW 23:44:31 30° NNW 23:44:31 30° NNW
SL-16 R/B 2.9 23:46:15 26° SE 23:49:53 64° ENE 23:56:05 10° N
ADEOS II 4.3 23:47:05 10° NE 23:50:28 17° E 23:53:32 11° SE
Cosmos 1092 Rocket 3.9 23:44:18 10° N 23:50:36 86° W 23:52:45 44° S
GEOS 3 Rocket 3.9 23:46:55 10° NE 23:52:14 54° SE 23:53:18 46° SSE
Cosmos 1300 Rocket 3.4 23:52:28 73° WSW 23:52:42 76° W 23:57:02 10° N
CZ-2D R/B 3.1 23:47:47 10° NNE 23:52:57 40° E 23:54:55 30° SE
Iridium 51 4.2 23:49:57 10° N 23:54:19 85° E 23:54:30 80° SE
